Regional Weather Roundup
Issued by NWS

Home | Current Version | Previous Version | Graphics & Text | Print | Product List | Glossary On
Versions: 1 2 3 4 5 6 7 8 9 10 11 12 13 14 15 16 17 18 19 20 21 22 23 24 25 26 27 28 29 30 31 32 33 34 35 36 37 38 39 40 41 42 43 44 45 46 47 48 49 50
000
ASUS45 KSLC 221210
RWRUT

UTAH REGIONAL WEATHER ROUNDUP
NATIONAL WEATHER SERVICE SALT LAKE CITY UT
600 AM MDT THU JUN 22 2017

UTZ001>011-023>025-221300-

NORTHERN UTAH

CITY           SKY/WX    TMP DP  RH WIND       PRES   REMARKS
BRIGHAM CITY   CLEAR     58  39  49 CALM      30.01R
HILL AFB       CLEAR     62  42  47 NE6       30.02R
LOGAN          CLEAR     52  45  77 N3        30.02R
OGDEN          CLEAR     61  39  44 NW7       30.00R
SALT LAKE CITY PTCLDY    67  40  37 N6        29.99R
TOOELE VALLEY  CLEAR     55  45  67 CALM      30.01R
WENDOVER         N/A     70  27  20 N8        30.03R
HEBER CITY     CLEAR     52  46  82 CALM      30.04S
WEST JORDAN    CLEAR     63  44  49 NW7       30.02R

$$

UTZ011>015-024>027-221300-

CENTRAL/NORTHEAST UTAH

CITY           SKY/WX    TMP DP  RH WIND       PRES   REMARKS
PROVO AIRPORT  CLEAR     67  50  54 S3        29.99R
MOAB/CANYONLAN CLEAR     75  32  20 VRB5      29.86R
DELTA          CLEAR     64  36  34 N8        29.99R
PRICE          PTCLDY    67  34  29 NE3       29.99R
ROOSEVELT      CLEAR     55  43  62 W7        29.97S
VERNAL         CLEAR     61  42  49 W3        29.96R

$$

UTZ013>016-019>022-027-221300-

SOUTHERN UTAH

CITY           SKY/WX    TMP DP  RH WIND       PRES   REMARKS
BRYCE CANYON   PTCLDY    44  28  53 W5        30.19S
CEDAR CITY     CLEAR     62  27  26 E6        30.03R
MILFORD        CLEAR     62  35  36 N7        30.01R
HANKSVILLE     CLEAR     63  27  25 NW5       29.89R
BLANDING       MOCLDY    66  32  28 NW5       30.08R

$$

REGIONAL REPORTS     COLORADO/ARIZONA

CITY           SKY/WX    TMP DP  RH WIND       PRES   REMARKS
CRAIG, CO      CLOUDY    51  45  79 CALM      30.06R
GRAND JUNCTION CLOUDY    75  38  26 VRB3      29.92R
RIFLE, CO      CLEAR     61  39  44 E7        30.02S
MONTROSE, CO   CLEAR     63  38  39 VRB7      30.04S
CORTEZ, CO     CLEAR     55  42  61 SE3       30.04R
COLORADO CITY    N/A     55  32  41 SE5       30.00R
PAGE, AZ       MOCLDY    78  30  17 W3        29.90R
GRAND CANYON   CLEAR     48  29  47 CALM      30.15R
KINGMAN, AZ    CLEAR     82  27  13 S13       29.84S
FLAGSTAFF, AZ  CLEAR     61  25  25 W3        30.17R

$$

REGIONAL REPORTS    NEVADA/IDAHO/WYOMING

CITY           SKY/WX    TMP DP  RH WIND       PRES   REMARKS
LAS VEGAS, NV  CLEAR     88  34  14 VRB5      29.71R
ELY, NY        CLEAR     51  36  56 S8        30.14R
ELKO, NV       CLEAR     54  39  57 CALM      30.12R
POCATELLO, ID  CLOUDY    57  38  48 SW13      30.06R
BURLEY, ID     CLEAR     58  31  35 W13G20    30.05R
FORT BRIDGER,    N/A     55  42  62 W9        30.14S
EVANSTON, WY   CLOUDY    59  40  49 CALM      30.14R
ROCK SPRINGS,  CLOUDY    56  42  59 W9        30.08R
KEMMERER, WY     N/A     50  32  50 W3        30.14R

$$



USA.gov is the U.S. government's official web portal to all federal, state and local government web resources and services.